Time,TemperatureF,DewpointF,PressureIn,WindDirection,WindDirectionDegrees,WindSpeedMPH,WindSpeedGustMPH,Humidity,HourlyPrecipIn,Conditions,Clouds,dailyrainin,SoftwareType,DateUTC
2013-02-27 00:30:00,32.0,20.0,-100.00,WSW,243,0.0,0.0,60,-99.99,,,-99.99,,2013-02-27 07:30:00,
2013-02-27 01:11:00,32.0,20.0,-100.00,WSW,243,0.0,0.0,60,-99.99,,,-99.99,,2013-02-27 08:11:00,
2013-02-27 01:21:00,32.0,20.0,-100.00,WSW,243,0.0,0.0,60,-99.99,,,-99.99,,2013-02-27 08:21:00,
2013-02-27 01:30:00,31.0,20.0,-100.00,SW,218,0.0,2.0,62,-99.99,,,-99.99,,2013-02-27 08:30:00,
2013-02-27 02:11:00,31.0,20.0,-100.00,SW,218,0.0,2.0,62,-99.99,,,-99.99,,2013-02-27 09:11:00,
2013-02-27 02:21:00,31.0,20.0,-100.00,SW,218,0.0,2.0,62,-99.99,,,-99.99,,2013-02-27 09:21:00,
2013-02-27 02:30:00,31.0,20.0,-100.00,SW,217,0.0,2.0,63,-99.99,,,-99.99,,2013-02-27 09:30:00,
2013-02-27 03:12:00,31.0,20.0,-100.00,SW,217,0.0,2.0,63,-99.99,,,-99.99,,2013-02-27 10:12:00,
2013-02-27 03:21:00,31.0,20.0,-100.00,SW,217,0.0,2.0,63,-99.99,,,-99.99,,2013-02-27 10:21:00,
2013-02-27 05:32:00,30.0,18.0,-100.00,West,263,0.0,0.0,60,-99.99,,,-99.99,,2013-02-27 12:32:00,
2013-02-27 05:42:00,30.0,18.0,-100.00,West,263,0.0,0.0,60,-99.99,,,-99.99,,2013-02-27 12:42:00,
2013-02-27 06:30:00,30.0,21.0,-100.00,SSW,207,0.0,2.0,70,-99.99,,,-99.99,,2013-02-27 13:30:00,
2013-02-27 07:12:00,30.0,21.0,-100.00,SSW,207,0.0,2.0,70,-99.99,,,-99.99,,2013-02-27 14:12:00,
2013-02-27 07:21:00,30.0,21.0,-100.00,SSW,207,0.0,2.0,70,-99.99,,,-99.99,,2013-02-27 14:21:00,
2013-02-27 08:12:00,30.0,19.0,-100.00,SW,227,2.0,2.0,63,-99.99,,,-99.99,,2013-02-27 15:12:00,
2013-02-27 08:30:00,31.0,19.0,-100.00,SSW,201,2.0,2.0,60,-99.99,,,-99.99,,2013-02-27 15:30:00,
2013-02-27 09:11:00,31.0,19.0,-100.00,SSW,201,2.0,2.0,60,-99.99,,,-99.99,,2013-02-27 16:11:00,
2013-02-27 09:22:00,31.0,19.0,-100.00,SSW,201,2.0,2.0,60,-99.99,,,-99.99,,2013-02-27 16:22:00,
2013-02-27 11:32:00,33.0,19.0,-100.00,SSE,156,2.0,2.0,56,-99.99,,,-99.99,,2013-02-27 18:32:00,
2013-02-27 11:42:00,33.0,19.0,-100.00,SSE,156,2.0,2.0,56,-99.99,,,-99.99,,2013-02-27 18:42:00,
2013-02-27 12:30:00,37.0,20.0,-100.00,SW,216,2.0,2.0,50,-99.99,,,-99.99,,2013-02-27 19:30:00,
2013-02-27 13:11:00,37.0,20.0,-100.00,SW,216,2.0,2.0,50,-99.99,,,-99.99,,2013-02-27 20:11:00,
2013-02-27 13:21:00,37.0,20.0,-100.00,SW,216,2.0,2.0,50,-99.99,,,-99.99,,2013-02-27 20:21:00,
2013-02-27 13:30:00,40.0,24.0,-100.00,SW,223,0.0,2.0,52,-99.99,,,-99.99,,2013-02-27 20:30:00,
2013-02-27 14:11:00,40.0,24.0,-100.00,SW,223,0.0,2.0,52,-99.99,,,-99.99,,2013-02-27 21:11:00,
2013-02-27 14:21:00,40.0,24.0,-100.00,SW,223,0.0,2.0,52,-99.99,,,-99.99,,2013-02-27 21:21:00,
2013-02-27 14:30:00,40.0,23.0,-100.00,SW,218,0.0,2.0,51,-99.99,,,-99.99,,2013-02-27 21:30:00,
2013-02-27 15:11:00,40.0,23.0,-100.00,SW,218,0.0,2.0,51,-99.99,,,-99.99,,2013-02-27 22:11:00,
2013-02-27 15:21:00,40.0,23.0,-100.00,SW,218,0.0,2.0,51,-99.99,,,-99.99,,2013-02-27 22:21:00,
2013-02-27 16:30:00,38.0,26.0,-100.00,SSW,195,0.0,2.0,62,-99.99,,,-99.99,,2013-02-27 23:30:00,
2013-02-27 17:11:00,38.0,26.0,-100.00,SSW,195,0.0,2.0,62,-99.99,,,-99.99,,2013-02-28 00:11:00,
2013-02-27 17:21:00,38.0,26.0,-100.00,SSW,195,0.0,2.0,62,-99.99,,,-99.99,,2013-02-28 00:21:00,
2013-02-27 17:30:00,36.0,27.0,-100.00,SW,227,2.0,2.0,70,-99.99,,,-99.99,,2013-02-28 00:30:00,
2013-02-27 18:11:00,36.0,27.0,-100.00,SW,227,2.0,2.0,70,-99.99,,,-99.99,,2013-02-28 01:11:00,
2013-02-27 18:21:00,36.0,27.0,-100.00,SW,227,2.0,2.0,70,-99.99,,,-99.99,,2013-02-28 01:21:00,
2013-02-27 18:30:00,35.0,25.0,-100.00,SW,229,2.0,2.0,67,-99.99,,,-99.99,,2013-02-28 01:30:00,
2013-02-27 19:11:00,35.0,25.0,-100.00,SW,229,2.0,2.0,67,-99.99,,,-99.99,,2013-02-28 02:11:00,
2013-02-27 19:22:00,35.0,25.0,-100.00,SW,229,2.0,2.0,67,-99.99,,,-99.99,,2013-02-28 02:22:00,
2013-02-27 19:30:00,34.0,24.0,-100.00,WSW,253,2.0,2.0,67,-99.99,,,-99.99,,2013-02-28 02:30:00,
2013-02-27 20:11:00,34.0,24.0,-100.00,WSW,253,2.0,2.0,67,-99.99,,,-99.99,,2013-02-28 03:11:00,
2013-02-27 20:21:00,34.0,24.0,-100.00,WSW,253,2.0,2.0,67,-99.99,,,-99.99,,2013-02-28 03:21:00,
2013-02-27 20:30:00,34.0,23.0,-100.00,West,261,2.0,2.0,63,-99.99,,,-99.99,,2013-02-28 03:30:00,
2013-02-27 21:11:00,34.0,23.0,-100.00,West,261,2.0,2.0,63,-99.99,,,-99.99,,2013-02-28 04:11:00,
2013-02-27 21:21:00,34.0,23.0,-100.00,West,261,2.0,2.0,63,-99.99,,,-99.99,,2013-02-28 04:21:00,
2013-02-27 22:30:00,33.0,23.0,-100.00,West,263,2.0,2.0,67,-99.99,,,-99.99,,2013-02-28 05:30:00,
2013-02-27 23:11:00,33.0,23.0,-100.00,West,263,2.0,2.0,67,-99.99,,,-99.99,,2013-02-28 06:11:00,
2013-02-27 23:22:00,33.0,23.0,-100.00,West,263,2.0,2.0,67,-99.99,,,-99.99,,2013-02-28 06:22:00,